Tracking 19288 objects as of 20-Nov-2018
HD Live streaming from Space Station
objects crossing your sky now

TOPO 1

Track TOPO 1 now!
10-day predictions
TOPO 1 is classified as:


NORAD ID: 4363
Int'l Code: 1970-025B
Perigee: 1,091.0 km
Apogee: 1,093.0 km
Inclination: 100.0 °
Period: 106.9 minutes
Semi major axis: 7463 km
RCS: 0.1794 m2 (medium)
Launch date: April 8, 1970
Source: United States (US)
Launch site: AIR FORCE WESTERN TEST RANGE (AFWTR)
aabbcc
Your satellite tracking list
Your tracking list is empty




NASA's NSSDC Master Catalog

Two Line Element Set (TLE):
1  4363U 70025B   18323.70138612 -.00000038 +00000-0 +12728-4 0  9991
2  4363 099.9939 222.3566 0001350 300.5705 085.9556 13.46572528388843
Source of the keplerian elements: AFSPC